THY53R LPMA-GCXO

Flight info

Callsign THY53R
Flight time 0h 25m
Altitude 31000
Route GOSGA1E GOSGA DCT ORTIS ORTIS1L
Aircraft B738/M-SDE2E3FGHIRWXY/LB1

Departure

Time 2026-05-04 11:22
Airport Cristiano Ronaldo International Airport (LPMA)

Arrival

Time 2026-05-04 11:48
Airport Tenerife Norte-Ciudad de La Laguna Airport (GCXO)
Time Latitude Longitude Altitude Speed Heading
2026-05-04 11:05 32.69337 -16.77696 190 ft 0 kts 138°
2026-05-04 11:16 32.69337 -16.77697 191 ft 0 kts 138°
2026-05-04 11:17 32.69340 -16.77700 191 ft 2 kts 138°
2026-05-04 11:17 32.69352 -16.77713 208 ft 2 kts 140°
2026-05-04 11:19 32.69394 -16.77728 206 ft 0 kts 226°
2026-05-04 11:19 32.69385 -16.77740 200 ft 4 kts 226°
2026-05-04 11:20 32.69352 -16.77779 190 ft 9 kts 225°
2026-05-04 11:20 32.69298 -16.77847 190 ft 13 kts 232°
2026-05-04 11:20 32.69298 -16.77947 189 ft 13 kts 301°
2026-05-04 11:20 32.69354 -16.77950 196 ft 0 kts 43°
2026-05-04 11:22 32.69666 -16.72730 2932 ft 208 kts 169°
2026-05-04 11:22 32.68150 -16.72465 3243 ft 230 kts 175°
2026-05-04 11:23 32.65797 -16.72165 4265 ft 243 kts 176°
2026-05-04 11:23 32.62231 -16.71690 5560 ft 269 kts 175°
2026-05-04 11:24 32.36339 -16.67619 13828 ft 371 kts 176°
2026-05-04 11:25 32.31175 -16.66786 15132 ft 377 kts 176°
2026-05-04 11:25 32.25941 -16.65944 16458 ft 382 kts 176°
2026-05-04 11:25 32.20626 -16.65092 17728 ft 389 kts 177°
2026-05-04 11:26 32.09717 -16.63345 19943 ft 401 kts 177°
2026-05-04 11:27 31.69003 -16.58793 26189 ft 436 kts 179°
2026-05-04 11:28 31.62931 -16.58129 26893 ft 440 kts 179°
2026-05-04 11:28 31.56874 -16.57466 27557 ft 444 kts 179°
2026-05-04 11:28 31.50720 -16.56792 28504 ft 441 kts 179°
2026-05-04 11:28 31.44634 -16.56127 29491 ft 438 kts 180°
2026-05-04 11:29 31.38566 -16.55472 30352 ft 436 kts 180°
2026-05-04 11:29 31.32515 -16.54846 31130 ft 434 kts 180°
2026-05-04 11:29 31.20257 -16.53598 31123 ft 446 kts 180°
2026-05-04 11:33 30.38491 -16.45256 31132 ft 438 kts 181°
2026-05-04 11:33 30.26624 -16.44046 31105 ft 418 kts 181°
2026-05-04 11:34 30.15198 -16.42895 30304 ft 405 kts 181°
2026-05-04 11:34 30.09627 -16.42335 29372 ft 398 kts 181°
2026-05-04 11:34 30.04147 -16.41785 28462 ft 391 kts 181°
2026-05-04 11:35 29.98773 -16.41246 27604 ft 384 kts 181°
2026-05-04 11:35 29.93478 -16.40715 26765 ft 379 kts 181°
2026-05-04 11:35 29.88262 -16.40194 25959 ft 374 kts 181°
2026-05-04 11:35 29.83108 -16.39679 25142 ft 370 kts 181°
2026-05-04 11:36 29.78008 -16.39170 24322 ft 366 kts 181°
2026-05-04 11:36 29.72945 -16.38665 23484 ft 364 kts 181°
2026-05-04 11:36 29.67921 -16.38163 22564 ft 360 kts 181°
2026-05-04 11:36 29.62961 -16.37669 21726 ft 356 kts 181°
2026-05-04 11:37 29.58070 -16.37417 20901 ft 345 kts 192°
2026-05-04 11:37 29.53356 -16.38247 20038 ft 341 kts 194°
2026-05-04 11:37 29.48676 -16.39086 19236 ft 339 kts 193°
2026-05-04 11:37 29.44022 -16.39905 18457 ft 337 kts 193°
2026-05-04 11:38 29.39460 -16.40700 17605 ft 334 kts 193°
2026-05-04 11:38 29.34883 -16.41493 16805 ft 330 kts 193°
2026-05-04 11:38 29.30361 -16.42275 16044 ft 326 kts 193°
2026-05-04 11:38 29.25898 -16.43047 15302 ft 322 kts 193°
2026-05-04 11:39 29.21498 -16.43807 14575 ft 318 kts 193°
2026-05-04 11:39 29.17139 -16.44560 13857 ft 316 kts 193°
2026-05-04 11:40 28.92374 -16.48815 10173 ft 262 kts 193°
2026-05-04 11:41 28.89394 -16.49330 9915 ft 265 kts 193°
2026-05-04 11:41 28.85651 -16.49978 9345 ft 271 kts 192°
2026-05-04 11:41 28.81941 -16.50613 8722 ft 263 kts 192°
2026-05-04 11:41 28.78357 -16.51226 8173 ft 259 kts 192°
2026-05-04 11:42 28.74805 -16.51835 7638 ft 257 kts 191°
2026-05-04 11:42 28.71264 -16.52441 7095 ft 256 kts 191°
2026-05-04 11:42 28.67734 -16.53044 6535 ft 257 kts 191°
2026-05-04 11:42 28.64634 -16.53576 6066 ft 256 kts 190°
2026-05-04 11:43 28.62919 -16.53868 5809 ft 249 kts 190°
2026-05-04 11:43 28.61205 -16.54160 5401 ft 249 kts 189°
2026-05-04 11:43 28.59497 -16.54452 5014 ft 247 kts 188°
2026-05-04 11:43 28.57800 -16.54739 4616 ft 246 kts 186°
2026-05-04 11:44 28.56126 -16.54511 4191 ft 245 kts 152°
2026-05-04 11:44 28.54950 -16.53217 4028 ft 232 kts 119°
2026-05-04 11:44 28.54187 -16.51622 3992 ft 228 kts 117°
2026-05-04 11:44 28.53518 -16.50005 3989 ft 224 kts 111°
2026-05-04 11:45 28.52969 -16.48396 4008 ft 211 kts 110°
2026-05-04 11:45 28.52472 -16.46877 3994 ft 199 kts 110°
2026-05-04 11:45 28.51985 -16.45401 3879 ft 200 kts 110°
2026-05-04 11:45 28.51503 -16.43947 3652 ft 197 kts 110°
2026-05-04 11:46 28.51026 -16.42507 3415 ft 192 kts 109°
2026-05-04 11:46 28.50549 -16.41112 3193 ft 188 kts 108°
2026-05-04 11:46 28.50110 -16.39749 2934 ft 173 kts 108°
2026-05-04 11:46 28.49742 -16.38642 2703 ft 166 kts 110°
2026-05-04 11:47 28.49357 -16.37445 2441 ft 155 kts 109°
2026-05-04 11:47 28.49003 -16.36373 2252 ft 135 kts 110°
2026-05-04 11:47 28.48677 -16.35379 2095 ft 133 kts 110°
2026-05-04 11:47 28.48385 -16.34510 2065 ft 98 kts 109°
2026-05-04 11:48 28.48198 -16.33945 2050 ft 55 kts 111°
2026-05-04 11:48 28.48145 -16.33685 2045 ft 20 kts 96°
2026-05-04 11:48 28.48149 -16.33558 2042 ft 12 kts 34°
2026-05-04 11:48 28.48201 -16.33608 2037 ft 11 kts 290°
2026-05-04 11:49 28.48228 -16.33690 2045 ft 11 kts 290°
2026-05-04 11:49 28.48255 -16.33770 2044 ft 11 kts 290°
2026-05-04 11:49 28.48280 -16.33847 2049 ft 10 kts 290°
2026-05-04 11:49 28.48309 -16.33933 2052 ft 14 kts 290°
2026-05-04 11:50 28.48349 -16.34056 2056 ft 17 kts 290°
2026-05-04 11:50 28.48392 -16.34182 2060 ft 17 kts 289°
2026-05-04 11:50 28.48432 -16.34304 2062 ft 16 kts 291°
2026-05-04 11:50 28.48471 -16.34421 2064 ft 16 kts 290°
2026-05-04 11:51 28.48508 -16.34532 2066 ft 15 kts 290°
2026-05-04 11:51 28.48543 -16.34640 2068 ft 14 kts 290°
2026-05-04 11:51 28.48578 -16.34745 2069 ft 13 kts 290°
2026-05-04 11:51 28.48603 -16.34808 2070 ft 6 kts 320°
2026-05-04 11:52 28.48642 -16.34788 2069 ft 7 kts 39°
2026-05-04 11:52 28.48677 -16.34755 2069 ft 6 kts 39°
2026-05-04 11:52 28.48697 -16.34737 2069 ft 0 kts 39°